Wahpeton, MN

4:06 PM CST on December 10, 2019 (GMT -0600)
Stern

Weather History for KBWP - October, 2019

Change the Weather History Date:

Friday, October 25, 2019

  Actual Average (KFFM) Record (KFFM)
Temperature  
Mean Temperature 44 °F -  
Max Temperature 59 °F 54 °F 77 °F (1989)
Min Temperature 30 °F 32 °F 17 °F (1957)
Degree Days  
Heating Degree Days 20    
Moisture  
Dew Point 31 °F    
Average Humidity 71    
Maximum Humidity 93    
Minimum Humidity 34    
Precipitation  
Precipitation 0.00 in - - ()
Sea Level Pressure  
Sea Level Pressure 30.04 in    
Wind  
Wind Speed 8 mph ()    
Max Wind Speed 16 mph    
Max Gust Speed 22 mph    
Visibility 10.0 miles    
Events      
Averages and records for this station are not official NWS values.
T = Trace of Precipitation, MM = Missing Value Source: Averaged Metar Reports

Daily Weather History Graph

Daily Weather History Graph

Search for Another Location

Airport or City:

Astronomy

Oct. 25, 2019 Rise Set
Actual Time 7:57 AM CDT 6:23 PM CDT
Civil Twilight 7:26 AM CDT 6:53 PM CDT
Nautical Twilight 6:51 AM CDT 7:28 PM CDT
Astronomical Twilight 6:16 AM CDT 8:03 PM CDT
Moon 4:25 AM CDT (10/25) 5:38 PM CDT (10/25)
Length of Visible Light 11h 27m
Length of Day
10h 25m
Waning Crescent, 9% of the Moon is Illuminated
Oct 25
Waning Crescent
Oct 27
New
Nov 4
First Quarter
Nov 12
Full
Nov 19
Last Quarter

Hourly Weather History & Observations

Time (CDT) Temp. Windchill Dew Point Humidity Pressure Visibility Wind Dir Wind Speed Gust Speed Precip Events Conditions
12:15 AM 32.0 °F 25.6 °F 28.4 °F 87% 30.25 in 10.0 mi South 6.9 mph - N/A   Unknown
12:35 AM 32.0 °F 24.8 °F 28.4 °F 87% 30.25 in 10.0 mi South 8.1 mph - N/A   Unknown
12:55 AM 32.0 °F 24.8 °F 28.4 °F 87% 30.25 in 10.0 mi South 8.1 mph - N/A   Unknown
1:15 AM 32.0 °F 24.8 °F 28.4 °F 87% 30.23 in 10.0 mi South 8.1 mph - N/A   Unknown
1:35 AM 32.0 °F 24.8 °F 28.4 °F 87% 30.22 in 10.0 mi South 8.1 mph - N/A   Unknown
1:55 AM 32.0 °F 24.8 °F 28.4 °F 87% 30.21 in 10.0 mi South 8.1 mph - N/A   Unknown
2:15 AM 32.0 °F 25.6 °F 28.4 °F 87% 30.21 in 10.0 mi South 6.9 mph - N/A   Unknown
2:35 AM 32.0 °F 26.4 °F 28.4 °F 87% 30.21 in 10.0 mi SSE 5.8 mph - N/A   Unknown
2:55 AM 32.0 °F 25.6 °F 28.4 °F 87% 30.21 in 10.0 mi South 6.9 mph - N/A   Unknown
3:15 AM 32.0 °F 24.8 °F 28.4 °F 87% 30.20 in 10.0 mi South 8.1 mph - N/A   Unknown
3:35 AM 32.0 °F 25.6 °F 28.4 °F 87% 30.20 in 10.0 mi South 6.9 mph - N/A   Unknown
3:55 AM 30.2 °F 23.4 °F 28.4 °F 93% 30.19 in 10.0 mi South 6.9 mph - N/A   Unknown
4:15 AM 30.2 °F 22.6 °F 28.4 °F 93% 30.18 in 10.0 mi South 8.1 mph - N/A   Unknown
4:35 AM 30.2 °F 23.4 °F 28.4 °F 93% 30.17 in 10.0 mi South 6.9 mph - N/A   Unknown
4:55 AM 30.2 °F 24.3 °F 28.4 °F 93% 30.17 in 10.0 mi South 5.8 mph - N/A   Unknown
5:15 AM 30.2 °F 24.3 °F 28.4 °F 93% 30.17 in 10.0 mi South 5.8 mph - N/A   Unknown
5:35 AM 30.2 °F 24.3 °F 28.4 °F 93% 30.16 in 10.0 mi South 5.8 mph - N/A   Unknown
5:55 AM 32.0 °F 26.4 °F 28.4 °F 87% 30.16 in 10.0 mi SSE 5.8 mph - N/A   Unknown
6:15 AM 30.2 °F 23.4 °F 28.4 °F 93% 30.15 in 10.0 mi SSE 6.9 mph - N/A   Unknown
6:35 AM 30.2 °F 24.3 °F 28.4 °F 93% 30.15 in 10.0 mi SSE 5.8 mph - N/A   Unknown
6:55 AM 30.2 °F 25.4 °F 28.4 °F 93% 30.14 in 10.0 mi SSE 4.6 mph - N/A   Unknown
7:15 AM 32.0 °F 26.4 °F 28.4 °F 87% 30.13 in 10.0 mi SSE 5.8 mph - N/A   Unknown
7:35 AM 32.0 °F 25.6 °F 28.4 °F 87% 30.13 in 10.0 mi SSE 6.9 mph - N/A   Unknown
7:55 AM 32.0 °F 24.2 °F 30.2 °F 93% 30.12 in 10.0 mi South 9.2 mph - N/A   Unknown
8:15 AM 32.0 °F 24.2 °F 30.2 °F 93% 30.12 in 10.0 mi South 9.2 mph - N/A   Unknown
8:35 AM 32.0 °F 24.2 °F 30.2 °F 93% 30.12 in 10.0 mi South 9.2 mph - N/A   Unknown
8:55 AM 32.0 °F 24.8 °F 30.2 °F 93% 30.12 in 10.0 mi South 8.1 mph - N/A   Unknown
9:15 AM 32.0 °F 24.2 °F 30.2 °F 93% 30.11 in 10.0 mi South 9.2 mph - N/A   Unknown
9:35 AM 33.8 °F 26.4 °F 30.2 °F 87% 30.11 in 10.0 mi South 9.2 mph - N/A   Unknown
9:55 AM 33.8 °F 25.8 °F 32.0 °F 93% 30.10 in 10.0 mi South 10.4 mph - N/A   Unknown
10:15 AM 35.6 °F 29.2 °F 32.0 °F 87% 30.10 in 10.0 mi South 8.1 mph - N/A   Unknown
10:35 AM 37.4 °F 30.3 °F 32.0 °F 81% 30.09 in 10.0 mi South 10.4 mph - N/A   Unknown
10:55 AM 41.0 °F 33.9 °F 32.0 °F 70% 30.08 in 10.0 mi South 12.7 mph - N/A   Unknown
11:15 AM 42.8 °F 36.2 °F 32.0 °F 66% 30.06 in 10.0 mi South 12.7 mph - N/A   Unknown
11:35 AM 44.6 °F 39.7 °F 32.0 °F 61% 30.06 in 10.0 mi South 9.2 mph - N/A   Unknown
11:55 AM 46.4 °F 41.5 °F 32.0 °F 57% 30.05 in 10.0 mi SSW 10.4 mph - N/A   Unknown
12:15 PM 50.0 °F - 32.0 °F 50% 30.05 in 10.0 mi SSW 13.8 mph 18.4 mph N/A   Unknown
12:55 PM 51.8 °F - 32.0 °F 47% 30.03 in 10.0 mi SSW 12.7 mph - N/A   Unknown
1:15 PM 53.6 °F - 32.0 °F 44% 30.02 in 10.0 mi SW 15.0 mph 18.4 mph N/A   Unknown
1:35 PM 55.4 °F - 30.2 °F 38% 30.01 in 10.0 mi SSW 16.1 mph 21.9 mph N/A   Unknown
1:55 PM 55.4 °F - 30.2 °F 38% 29.99 in 10.0 mi SW 13.8 mph 20.7 mph N/A   Unknown
2:15 PM 55.4 °F - 30.2 °F 38% 29.98 in 10.0 mi SSW 13.8 mph - N/A   Unknown
2:35 PM 55.4 °F - 30.2 °F 38% 29.97 in 10.0 mi SSW 10.4 mph - N/A   Unknown
2:55 PM 57.2 °F - 32.0 °F 38% 29.97 in 10.0 mi SW 10.4 mph - N/A   Unknown
3:15 PM 59.0 °F - 30.2 °F 34% 29.96 in 10.0 mi SW 15.0 mph - N/A   Unknown
3:35 PM 59.0 °F - 30.2 °F 34% 29.94 in 10.0 mi WSW 13.8 mph - N/A   Unknown
3:55 PM 59.0 °F - 30.2 °F 34% 29.94 in 10.0 mi SW 11.5 mph 18.4 mph N/A   Unknown
4:15 PM 59.0 °F - 32.0 °F 36% 29.93 in 10.0 mi SW 12.7 mph - N/A   Unknown
4:35 PM 59.0 °F - 32.0 °F 36% 29.93 in 10.0 mi SW 12.7 mph 16.1 mph N/A   Unknown
4:55 PM 57.2 °F - 32.0 °F 38% 29.93 in 10.0 mi SSW 9.2 mph - N/A   Unknown
5:15 PM 57.2 °F - 32.0 °F 38% 29.92 in 10.0 mi SSW 10.4 mph - N/A   Unknown
5:35 PM 55.4 °F - 32.0 °F 41% 29.92 in 10.0 mi SSW 5.8 mph - N/A   Unknown
5:55 PM 53.6 °F - 33.8 °F 47% 29.92 in 10.0 mi SSW 6.9 mph - N/A   Unknown
6:15 PM 51.8 °F - 33.8 °F 50% 29.92 in 10.0 mi South 6.9 mph - N/A   Unknown
6:35 PM 50.0 °F - 33.8 °F 54% 29.92 in 10.0 mi South 6.9 mph - N/A   Unknown
6:55 PM 46.4 °F 42.9 °F 33.8 °F 62% 29.92 in 10.0 mi South 6.9 mph - N/A   Unknown
7:15 PM 44.6 °F 40.2 °F 33.8 °F 66% 29.91 in 10.0 mi South 8.1 mph - N/A   Unknown
7:35 PM 44.6 °F 39.2 °F 33.8 °F 66% 29.90 in 10.0 mi South 10.4 mph - N/A   Unknown
7:55 PM 44.6 °F 38.8 °F 33.8 °F 66% 29.89 in 10.0 mi South 11.5 mph - N/A   Unknown
8:15 PM 44.6 °F 38.4 °F 33.8 °F 66% 29.88 in 10.0 mi South 12.7 mph - N/A   Unknown
8:35 PM 44.6 °F 38.1 °F 33.8 °F 66% 29.87 in 10.0 mi South 13.8 mph - N/A   Unknown
8:55 PM 44.6 °F 38.4 °F 33.8 °F 66% 29.87 in 10.0 mi South 12.7 mph - N/A   Unknown
9:15 PM 44.6 °F 38.4 °F 33.8 °F 66% 29.86 in 10.0 mi South 12.7 mph - N/A   Unknown
9:35 PM 42.8 °F 36.2 °F 33.8 °F 70% 29.86 in 10.0 mi South 12.7 mph - N/A   Unknown
9:55 PM 42.8 °F 36.6 °F 33.8 °F 70% 29.86 in 10.0 mi South 11.5 mph - N/A   Unknown
10:15 PM 42.8 °F 36.6 °F 33.8 °F 70% 29.84 in 10.0 mi South 11.5 mph - N/A   Unknown
10:35 PM 41.0 °F 34.3 °F 33.8 °F 76% 29.84 in 10.0 mi South 11.5 mph - N/A   Unknown
10:55 PM 41.0 °F 33.9 °F 33.8 °F 76% 29.84 in 10.0 mi South 12.7 mph - N/A   Unknown
11:15 PM 41.0 °F 33.5 °F 33.8 °F 76% 29.83 in 10.0 mi South 13.8 mph - N/A   Unknown
11:35 PM 41.0 °F 33.5 °F 33.8 °F 76% 29.82 in 10.0 mi South 13.8 mph - N/A   Unknown
11:55 PM 41.0 °F 33.9 °F 33.8 °F 76% 29.82 in 10.0 mi South 12.7 mph - N/A   Unknown